Flag for New Zealand Weather past 2 weeks in Christchurch, New Zealand

Now
34 °F

Chilly.


Feels Like: 28 °F
Forecast: 34 / 48 °F
Wind: 7 mph from Northeast

Location: Christchurch Airport

Current Time: Jul 4, 2015 at 8:53:42 AM

Latest Report: Jul 4, 2015 at 8:00 AM


Visibility: N/A

Pressure: 29.89 "Hg

Humidity: 100%

Dew point: 34 °F

Location of ChristchurchLocation

Historic Weather in Christchurch — Graph

°F

Christchurch temperature yesterday

Maximum temperature yesterday: 57 °F (at 12:30 AM)
Minimum temperature yesterday: 43 °F (at 9:30 PM)
Average temperature yesterday: 50 °F

Past Weeks' High & Low Weather Summary

 TemperatureHumidityPressure
High64 °F (Jun 29, 12:30 PM)100% (Jun 19, 8:00 AM)30.57 "Hg (Jun 19, 8:00 AM)
Low25 °F (Jun 24, 5:30 AM)33% (Jun 30, 6:00 PM)29.47 "Hg (Jun 19, 4:30 PM)
Average42 °F79%29.91 "Hg
* Reported Jun 19 8:00 AM — Jul 4 8:00 AM, Christchurch, Weather by CustomWeather, © 2015

Note: Actual official high and low records may vary slightly from our data, if they occured in-between our weather recording intervals... More about our weather records

Advertising

Christchurch weather history for previous 24 hours

 ConditionsComfort  
Time TempWeatherWind HumidityBarometerVisibility
8:00 AM
Sat, Jul 4
34 °FChilly.7 mph100%29.89 "HgN/A
7:30 AM36 °FChilly.9 mph93%29.89 "HgN/A
7:00 AM36 °FChilly.7 mph93%29.86 "HgN/A
6:30 AM34 °FChilly.7 mph100%29.86 "HgN/A
6:00 AM36 °FFog.6 mph100%29.86 "Hg1 mi
5:30 AM37 °FChilly.3 mph100%29.86 "Hg4 mi
5:00 AM37 °FChilly.6 mph100%29.86 "HgN/A
4:30 AM36 °FChilly.6 mph100%29.86 "HgN/A
4:00 AM37 °FChilly.6 mph93%29.86 "HgN/A
3:30 AM41 °FPassing clouds.7 mph93%29.86 "HgN/A
3:00 AM43 °FPassing clouds.6 mph93%29.86 "HgN/A
2:30 AM43 °FOvercast.3 mph93%29.86 "HgN/A
2:00 AM43 °FOvercast.2 mph93%29.86 "HgN/A
1:30 AM43 °FPassing clouds.3 mph93%29.86 "HgN/A
1:00 AM41 °FPassing clouds.3 mph93%29.86 "HgN/A
12:30 AM43 °FMostly cloudy.5 mph93%29.86 "HgN/A
12:00 AM41 °FOvercast.3 mph93%29.83 "HgN/A
11:30 PM
Fri, Jul 3
43 °FLight rain. Mostly cloudy.3 mph93%29.83 "HgN/A
11:00 PM43 °FSprinkles. Passing clouds.2 mph93%29.83 "HgN/A
10:30 PM43 °FPassing clouds.3 mph93%29.80 "HgN/A
10:00 PM45 °FLight rain. Overcast.6 mph81%29.80 "HgN/A
9:30 PM43 °FOvercast.6 mph93%29.77 "HgN/A
9:00 PM45 °FOvercast.8 mph87%29.77 "HgN/A
8:30 PM46 °FPassing clouds.7 mph82%29.74 "HgN/A
8:00 PM46 °FLight rain. Overcast.8 mph76%29.74 "HgN/A
7:30 PM46 °FLight rain. Overcast.2 mph76%29.71 "HgN/A
7:00 PM46 °FOvercast.6 mph76%29.68 "HgN/A
6:30 PM46 °FOvercast.5 mph76%29.68 "HgN/A
6:00 PM46 °FOvercast.9 mph76%29.65 "HgN/A
5:30 PM46 °FPartly cloudy.14 mph76%29.62 "HgN/A
5:00 PM46 °FMostly cloudy.14 mph87%29.59 "HgN/A
4:30 PM48 °FPassing clouds.15 mph82%29.59 "HgN/A
3:30 PM50 °FCool.18 mph82%29.53 "HgN/A
2:30 PM54 °FPartly sunny.8 mph67%29.50 "HgN/A
2:00 PM54 °FPartly sunny.5 mph72%29.50 "HgN/A
1:30 PM55 °FRefreshingly cool.9 mph59%29.50 "HgN/A
1:00 PM55 °FCool.5 mph63%29.50 "HgN/A
12:30 PM57 °FRefreshingly cool.5 mph55%29.47 "HgN/A
12:00 PM57 °FRefreshingly cool.2 mph59%29.47 "HgN/A
11:30 AM57 °FRefreshingly cool.7 mph55%29.50 "HgN/A
11:00 AM54 °FCool.8 mph67%29.50 "HgN/A
10:30 AM54 °FCool.7 mph63%29.50 "HgN/A
10:00 AM48 °FCool.6 mph76%29.50 "HgN/A
9:30 AM46 °FCool.1 mph82%29.50 "HgN/A
9:00 AM46 °FCool.2 mph76%29.50 "HgN/A
8:30 AM46 °FPassing clouds.5 mph76%29.50 "HgN/A
8:00 AM46 °FPassing clouds.6 mph76%29.50 "HgN/A
Weather by CustomWeather, © 2015

See weather overviewHow to use our weather pages